CLUSTER II-FM8 (TANGO)

Last updated on Thu Apr 09 2026 00:03:38 GMT+0000 (Coordinated Universal Time)

1 26464U 00045B 26100.86750016 .00003246 00000+0 00000+0 0 9996 2 26464 149.7573 40.4938 8972572 256.7727 0.6891 0.44408156 19998
UTC large
Height (km)
Speed (km/s)
/
Latitude / Longitude
Inclination (degrees)
Orbital Period (minutes)
Azimuth
Elevation
Range (km)
Doppler Factor

Next 0 passes for location: London (51.5072 / 0.1276)

Sorry there are no passes over London.
CLUSTER II-FM8 (TANGO)